[[[{"header":{"parameterUnit":"kt","parameterCategory":2,"dx":1,"dy":1,"la1":30.253999710083008,"la2":30.299108505249023,"lo1":-89.0895004272461,"lo2":-89.04439544677734,"nx":28,"ny":28,"refTime":"2022-10-04T21:00:00:Z","depth":"0","parameterNumber":2,"parameterNumberName":"U-component_of_CURRENTS"},"data":[0.5011,0.4856,0.482,0.4563,0.4499,0.4286,0.4234,0.4228,0.4399,0.4569,0.479,0.5093,0.5326,0.5253,0.4879,0.4772,0.4323,0.4194,0.419,0.4693,0.4777,0.4856,0.4621,0.4058,0.4056,0.2968,0.2959,0.2952,0.5143,0.5086,0.5065,0.4962,0.4856,0.4939,0.4937,0.4855,0.4853,0.5205,0.5386,0.5721,0.5851,0.6067,0.6101,0.584,0.5602,0.5582,0.5099,0.5032,0.5985,0.578,0.5454,0.5454,0.5454,0.5455,0.5455,0.5456,0.5351,0.5313,0.5288,0.5247,0.5245,0.519,0.5118,0.5237,0.5291,0.5471,0.5811,0.6035,0.6419,0.6947,0.7003,0.6809,0.6943,0.6587,0.6557,0.6397,0.6065,0.7135,0.7168,0.7171,0.7175,0.7178,0.718,0,0.5444,0.5466,0.5472,0.545,0.5454,0.545,0.5512,0.5535,0.5751,0.5869,0.6082,0.6261,0.6749,0.6949,0.7357,0.7493,0.7168,0.7553,0.7164,0.6452,0.6152,0.599,0.7108,0.7162,0.7166,0.7169,0.7171,0.7173,0.5554,0.5532,0.5606,0.5596,0.5643,0.5671,0.5682,0.5844,0.5906,0.6194,0.6256,0.6562,0.6756,0.7226,0.7475,0.7783,0.7499,0.7636,0.7469,0.7053,0.6977,0.6758,0.6605,0.7216,0.721,0.7206,0.7202,0,0.5619,0.567,0.5674,0.5767,0.5784,0.5799,0.5902,0.5924,0.6095,0.622,0.6285,0.6565,0.6856,0.7111,0.7438,0.7524,0.7515,0.781,0.7496,0.7473,0.7096,0.7014,0.6779,0.6597,0.7918,0.7918,0.7918,0,0.5794,0.5754,0.5874,0.5874,0.585,0.5981,0.5984,0.6095,0.6236,0.6313,0.6503,0.6614,0.6871,0.7082,0.7271,0.7502,0.7544,0.7581,0.7602,0.7318,0.7291,0.6869,0.6756,0.7634,0.7631,0.7629,0.7628,0,0.5918,0.5994,0.5952,0.5978,0.6101,0.6096,0.6152,0.6278,0.6326,0.6503,0.6548,0.6721,0.6859,0.7005,0.7269,0.7199,0.7527,0.7472,0.7538,0.7538,0.7226,0.7192,0.6984,0.7625,0.7624,0.7624,0.7623,0,0.6097,0.6118,0.6158,0.6146,0.6148,0.625,0.6216,0.6347,0.6486,0.6529,0.6606,0.6688,0.6894,0.6911,0.7169,0.7057,0.7178,0.7281,0.7291,0.7141,0.7105,0.6992,0.7203,0.6793,0.7412,0.7409,0.7407,0,0.6065,0.6157,0.6206,0.6254,0.6255,0.626,0.6389,0.6444,0.6494,0.6561,0.6673,0.6795,0.6838,0.6872,0.6969,0.7103,0.7204,0.7092,0.7114,0.7116,0.7016,0.7276,0.6968,0.7172,0.7373,0.7376,0.7379,0,0.6025,0.6126,0.6099,0.6074,0.6144,0.6158,0.6326,0.6322,0.6359,0.6481,0.6502,0.6796,0.6737,0.6802,0.6844,0.6926,0.716,0.6856,0.6853,0.6924,0.7285,0.7237,0.7257,0.7081,0.7084,0.7086,0.7352,0,0.5974,0.5973,0.6025,0.6086,0.6114,0.6119,0.6202,0.623,0.6241,0.6266,0.6372,0.6493,0.6535,0.6673,0.6694,0.6853,0.6794,0.6733,0.6555,0.6749,0.685,0.6872,0.6539,0.6534,0.6531,0.6527,0,0,0.5782,0.5806,0.5799,0.588,0.5857,0.5824,0.587,0.5965,0.5992,0.5958,0.6004,0.616,0.6255,0.6403,0.6537,0.6564,0.6541,0.6427,0.6673,0.669,0.6705,0.6809,0.6835,0.652,0.6519,0.6518,0.6516,0,0.5721,0.5686,0.577,0.578,0.5776,0.5773,0.5787,0.5798,0.582,0.5918,0.5928,0.6025,0.6112,0.6199,0.6261,0.6487,0.6393,0.6526,0.6577,0.664,0.6662,0.6681,0.6789,0.6815,0.6507,0.6507,0.6508,0,0.5583,0.5577,0.5616,0.562,0.5617,0.5697,0.5606,0.5653,0.5741,0.5632,0.575,0.5782,0.5838,0.5985,0.6037,0.5944,0.6201,0.6121,0.6143,0.6068,0.612,0.6148,0.6174,0.5834,0.5832,0.583,0,0,0.5525,0.557,0.5559,0.561,0.5613,0.5594,0.5609,0.5609,0.563,0.5638,0.5634,0.5676,0.5786,0.5793,0.5859,0.5924,0.5887,0.6042,0.6074,0.61,0.6042,0.61,0.6129,0.5823,0.5823,0.5823,0,0,0.5521,0.5541,0.5493,0.5569,0.5558,0.5575,0.5613,0.5591,0.5611,0.5623,0.559,0.559,0.5724,0.5671,0.5579,0.5844,0.5711,0.5727,0.5871,0.5909,0.594,0.5862,0.5519,0,0,0,0,0,0.546,0.5534,0.5489,0.5498,0.5535,0.5573,0.5576,0.5585,0.5571,0.559,0.5602,0.5556,0.5662,0.5578,0.5572,0.5724,0.573,0.5746,0.5762,0.5967,0.6009,0.6044,0,0,0,0,0,0,0.5464,0.5475,0.5488,0.5507,0.5516,0.5571,0.5552,0.5554,0.557,0.5571,0.5558,0.5555,0.554,0.5576,0.5572,0.572,0.552,0.5736,0.575,0.5763,0.5982,0.6015,0.6045,0,0,0,0,0,0.5467,0.5476,0.5538,0.5506,0.5514,0.5532,0.5551,0.5553,0.5563,0.5551,0.5549,0.5573,0.554,0.5537,0.5574,0.5726,0.5522,0.5521,0.5745,0.5756,0.5766,0.5998,0,0,0,0,0,0,0.5469,0.5465,0.5539,0.5541,0.5508,0.553,0.5535,0.5553,0.5541,0.5541,0.5563,0.5563,0.554,0.5537,0.5535,0.5736,0.5524,0.5523,0.5522,0.5754,0.5762,0.577,0,0,0,0,0,0,0.546,0.5466,0.554,0.5542,0.5544,0.5527,0.5532,0.5519,0.5539,0.5552,0.5553,0.5563,0.554,0.5538,0.5536,0.5515,0.5526,0.5524,0.5524,0.5523,0.5761,0.5768,0,0,0,0,0,0,0.5463,0.5468,0.5541,0.5542,0.5544,0.5562,0.5513,0.5545,0.5562,0.5551,0.5563,0.5563,0.554,0.5538,0.5537,0.5516,0.5515,0.5526,0.5525,0.5524,0.5524,0,0,0,0,0,0,0,0.5464,0.5434,0.5534,0.5543,0.5544,0.5561,0.5561,0.5561,0.5562,0.5562,0.5563,0.5563,0.5533,0.5531,0.553,0.5518,0,0,0.5526,0.5525,0,0,0,0,0,0,0,0,0.5431,0.5433,0.5534,0.5535,0.5536,0.5561,0.5561,0.5561,0.5562,0.5562,0.5563,0.5563,0.5532,0.5531,0.553,0,0,0,0,0,0,0,0,0,0,0,0,0,0,0,0.5534,0.5535,0,0.5561,0.5561,0.5561,0.5562,0.5562,0.5563,0.5563,0.5532,0.5531,0.553,0,0,0,0,0,0,0,0,0,0,0,0,0,0,0,0,0,0,0,0,0,0,0,0,0,0,0,0,0,0,0,0,0,0,0,0,0,0,0,0,0,0,0,0,0,0,0,0,0,0,0,0,0,0,0,0,0,0,0,0,0,0,0,0,0,0,0,0,0]}],[{"header":{"parameterUnit":"kt","parameterCategory":2,"dx":1,"dy":1,"la1":30.253999710083008,"la2":30.299108505249023,"lo1":-89.0895004272461,"lo2":-89.04439544677734,"nx":28,"ny":28,"refTime":"2022-10-04T21:00:00:Z","depth":"0","parameterNumber":3,"parameterNumberName":"V-component_of_CURRENTS"},"data":[0.2593,0.2637,0.268,0.2765,0.2846,0.294,0.3041,0.3176,0.3349,0.3503,0.3629,0.3758,0.3342,0.1528,0.0198,-0.0099,-0.0458,-0.053,-0.0736,-0.0296,-0.0238,-0.0182,-0.0203,-0.0749,-0.075,-0.1276,-0.1282,-0.1286,0.2632,0.2688,0.277,0.2858,0.2945,0.3025,0.3208,0.3283,0.339,0.3556,0.3592,0.3525,0.2915,0.2275,0.1247,0.0596,0.0432,0.0252,0.0191,0.0163,0.0807,0.0821,0.0483,0.0484,0.0484,0.0484,0.0485,0.0485,0.2701,0.2731,0.2812,0.2888,0.2994,0.3113,0.3186,0.3322,0.3425,0.3501,0.3513,0.353,0.3141,0.2475,0.1988,0.1173,0.125,0.0953,0.085,0.081,0.0724,0.1477,0.1227,0.1227,0.1226,0.1226,0.1226,0,0.2734,0.2777,0.2834,0.2923,0.3005,0.3104,0.3216,0.3288,0.3397,0.3436,0.3456,0.3423,0.3049,0.2727,0.2213,0.1902,0.1467,0.159,0.1261,0.1169,0.1094,0.0875,0.1656,0.1614,0.1616,0.1617,0.1618,0.1619,0.2739,0.2803,0.2903,0.2947,0.2981,0.3073,0.3153,0.3245,0.3318,0.3365,0.3387,0.3253,0.3198,0.2723,0.2339,0.1942,0.1739,0.1655,0.1663,0.1353,0.1093,0.1019,0.0948,0.164,0.1637,0.1635,0.1633,0,0.273,0.2789,0.2889,0.2975,0.3008,0.3061,0.317,0.3241,0.3286,0.3337,0.3339,0.3301,0.3103,0.2883,0.2562,0.234,0.1889,0.1931,0.2006,0.1848,0.1292,0.1178,0.0919,0.0815,0.1604,0.16,0.1597,0,0.2683,0.2775,0.2822,0.2861,0.298,0.3026,0.3142,0.3179,0.3238,0.3289,0.3257,0.3255,0.3049,0.2886,0.2666,0.2342,0.2386,0.2099,0.1923,0.1964,0.1948,0.1514,0.1374,0.2169,0.2171,0.2172,0.2174,0,0.2459,0.2678,0.2794,0.2829,0.2899,0.2982,0.3025,0.3082,0.3134,0.3156,0.3123,0.3136,0.3053,0.2886,0.2632,0.2589,0.2378,0.2226,0.1965,0.1947,0.1807,0.1774,0.1675,0.2176,0.2177,0.2177,0.2178,0,0.2348,0.2399,0.2636,0.2656,0.2692,0.2824,0.2851,0.2986,0.3021,0.2985,0.302,0.2885,0.2977,0.2814,0.2677,0.2658,0.2462,0.2303,0.2283,0.2017,0.1702,0.1566,0.1778,0.1456,0.1923,0.1923,0.1922,0,0.1982,0.221,0.2219,0.2436,0.2507,0.2414,0.2588,0.2622,0.2589,0.2619,0.2606,0.2631,0.2582,0.2523,0.2564,0.2321,0.235,0.2396,0.1836,0.1823,0.1698,0.1937,0.1969,0.178,0.192,0.192,0.192,0,0.1668,0.1727,0.1759,0.1786,0.1837,0.1845,0.2071,0.2141,0.2198,0.2231,0.2321,0.2492,0.2324,0.2337,0.2236,0.2247,0.2325,0.1988,0.1972,0.1911,0.2071,0.194,0.1928,0.2126,0.2129,0.2132,0.1918,0,0.1354,0.1418,0.1492,0.1598,0.1611,0.1684,0.1673,0.17,0.1647,0.1641,0.1747,0.1696,0.1708,0.1758,0.1705,0.1883,0.1689,0.1529,0.1364,0.1594,0.1457,0.1462,0.129,0.1282,0.1275,0.1269,0,0,0.1008,0.1118,0.0975,0.1112,0.1135,0.0943,0.111,0.1127,0.1117,0.1141,0.106,0.1124,0.1108,0.1308,0.1436,0.1352,0.1197,0.1341,0.1477,0.1502,0.1523,0.1409,0.1421,0.1257,0.1254,0.1252,0.1249,0,0.0908,0.0797,0.0935,0.0925,0.0896,0.0855,0.0872,0.0837,0.0848,0.0941,0.0858,0.0903,0.0905,0.0969,0.0989,0.1234,0.101,0.1198,0.1509,0.1419,0.1454,0.1482,0.1379,0.1394,0.1232,0.1233,0.1234,0,0.0693,0.0659,0.069,0.0661,0.0631,0.0741,0.0555,0.0577,0.0703,0.0476,0.0638,0.056,0.0515,0.0653,0.0691,0.0602,0.0802,0.0765,0.0797,0.0845,0.0739,0.078,0.0817,0.0348,0.0346,0.0345,0,0,0.0624,0.0656,0.0598,0.0641,0.0634,0.0559,0.0551,0.0516,0.0493,0.0482,0.0451,0.043,0.0469,0.0485,0.0475,0.0564,0.0431,0.0673,0.0714,0.075,0.0817,0.0723,0.0762,0.034,0.034,0.0339,0,0,0.0605,0.057,0.0513,0.0566,0.0535,0.048,0.0508,0.0449,0.0432,0.0433,0.0344,0.0334,0.0435,0.0339,0.028,0.0487,0.0292,0.0302,0.0615,0.0664,0.0704,0.0801,0.0175,0,0,0,0,0,0.0507,0.0574,0.0522,0.0521,0.0484,0.0491,0.0482,0.0434,0.0387,0.0411,0.0376,0.0302,0.0319,0.0264,0.025,0.0435,0.0272,0.0284,0.0296,0.0713,0.0767,0.0812,0,0,0,0,0,0,0.0506,0.0506,0.0521,0.0471,0.0462,0.0488,0.0412,0.0399,0.0386,0.038,0.0311,0.0299,0.0247,0.0263,0.0253,0.0433,0.0178,0.0277,0.0287,0.0296,0.0732,0.0775,0.0813,0,0,0,0,0,0.0506,0.0505,0.047,0.0468,0.0461,0.0405,0.0412,0.04,0.0385,0.0316,0.0303,0.0355,0.0249,0.0237,0.0257,0.0443,0.0185,0.0181,0.0284,0.0292,0.0299,0.0753,0,0,0,0,0,0,0.0505,0.0476,0.0466,0.046,0.0468,0.0403,0.0395,0.0402,0.032,0.0309,0.0356,0.0352,0.0249,0.024,0.0231,0.0458,0.019,0.0187,0.0184,0.029,0.0296,0.0302,0,0,0,0,0,0,0.0476,0.0472,0.0462,0.0464,0.0458,0.0402,0.0395,0.0361,0.032,0.0363,0.0359,0.0355,0.0267,0.0242,0.0235,0.0183,0.0194,0.0191,0.0189,0.0187,0.0295,0.03,0,0,0,0,0,0,0.0473,0.0469,0.0465,0.046,0.0455,0.0381,0.0368,0.0334,0.0324,0.0367,0.0322,0.0322,0.0271,0.0263,0.0239,0.0189,0.0184,0.0194,0.0192,0.019,0.0189,0,0,0,0,0,0,0,0.047,0.0517,0.0507,0.0457,0.0452,0.0408,0.0405,0.0403,0.0324,0.0323,0.0323,0.0322,0.0214,0.021,0.0206,0.0194,0,0,0.0195,0.0193,0,0,0,0,0,0,0,0,0.0516,0.0517,0.0507,0.0506,0.0505,0.0407,0.0405,0.0404,0.0324,0.0323,0.0323,0.0322,0.0213,0.021,0.0207,0,0,0,0,0,0,0,0,0,0,0,0,0,0,0,0.0507,0.0506,0,0.0407,0.0406,0.0404,0.0324,0.0323,0.0323,0.0322,0.0212,0.021,0.0207,0,0,0,0,0,0,0,0,0,0,0,0,0,0,0,0,0,0,0,0,0,0,0,0,0,0,0,0,0,0,0,0,0,0,0,0,0,0,0,0,0,0,0,0,0,0,0,0,0,0,0,0,0,0,0,0,0,0,0,0,0,0,0,0,0,0,0,0,0]}]],[[{"header":{"parameterUnit":"kt","parameterCategory":2,"dx":1,"dy":1,"la1":30.253999710083008,"la2":30.299108505249023,"lo1":-89.0895004272461,"lo2":-89.04439544677734,"nx":28,"ny":28,"refTime":"2022-10-04T21:00:00:Z","depth":"2","parameterNumber":2,"parameterNumberName":"U-component_of_CURRENTS"},"data":[0.5259,0.5269,0.516,0.5153,0.5291,0.5136,0.4954,0.4453,0.4133,0.3473,0.3165,0.3165,0.3394,0.2837,0.2853,0.2709,0.2992,0.2604,0.3805,0.3734,0.3802,0.405,0.399,0,0,0,0,0,0.5217,0.5231,0.5321,0.5447,0.5494,0.567,0.5522,0.5231,0.4876,0.4711,0.4485,0.3896,0.358,0.3639,0.3466,0.3519,0.3468,0.3391,0.3268,0.3352,0.3427,0.3326,0.2603,0.2599,0.2595,0.2591,0,0,0.5243,0.5231,0.546,0.5517,0.5723,0.5689,0.5563,0.5604,0.5487,0.5286,0.5486,0.5129,0.5109,0.4534,0.4401,0.4375,0.47,0.4482,0.4507,0.4543,0.45,0.4536,0.4089,0.4095,0.41,0.4105,0.4109,0,0.5271,0.5403,0.5458,0.5624,0.5801,0.5806,0.5971,0.5934,0.6113,0.61,0.6046,0.5949,0.585,0.5416,0.5259,0.5108,0.5261,0.5025,0.5769,0.4787,0.4827,0.467,0.4712,0.444,0.4448,0.4454,0.4459,0.4462,0.5487,0.5469,0.5637,0.5735,0.5771,0.5911,0.6021,0.617,0.6228,0.6379,0.6382,0.6392,0.627,0.6078,0.5936,0.573,0.5854,0.5219,0.5132,0.5879,0.5717,0.5726,0.5733,0.4551,0.454,0.453,0.4523,0,0.5601,0.5624,0.5642,0.5742,0.5798,0.59,0.6109,0.6161,0.6311,0.6372,0.6429,0.65,0.6473,0.6431,0.6278,0.6213,0.6058,0.5931,0.5572,0.5366,0.5753,0.5756,0.5666,0.5662,0.5658,0.5655,0.5653,0,0.567,0.5669,0.5686,0.5687,0.5784,0.596,0.6103,0.6204,0.6319,0.6349,0.6459,0.6473,0.6511,0.6472,0.6443,0.63,0.6298,0.6105,0.5931,0.5546,0.5503,0.5932,0.5916,0.6089,0.6091,0.6092,0.6093,0,0.5589,0.5631,0.568,0.5714,0.5758,0.5951,0.6054,0.6222,0.6292,0.6367,0.6369,0.6468,0.6529,0.6448,0.6504,0.6473,0.6371,0.6208,0.5973,0.5961,0.5432,0.5375,0.6094,0.6095,0.6095,0.6095,0.6096,0,0.5494,0.542,0.5574,0.5564,0.5638,0.5792,0.5995,0.6128,0.6204,0.6243,0.6343,0.6292,0.6563,0.6484,0.6542,0.6545,0.6428,0.6339,0.632,0.6124,0.5835,0.525,0.5332,0.6012,0.6012,0.6013,0.6013,0,0.5209,0.5265,0.5332,0.5475,0.553,0.5622,0.5803,0.5939,0.5986,0.6004,0.6128,0.6193,0.6329,0.6386,0.6457,0.6413,0.6416,0.6476,0.5944,0.5933,0.5793,0.6,0.5543,0.5362,0.6018,0.6018,0.6017,0,0.5039,0.4999,0.5034,0.5028,0.5175,0.5245,0.5506,0.5644,0.5685,0.5794,0.588,0.6218,0.6155,0.6236,0.6276,0.6309,0.6412,0.6174,0.6158,0.6076,0.6109,0.6014,0.6001,0.6176,0.6177,0.6178,0.6022,0,0.48,0.4801,0.4857,0.4935,0.5044,0.5122,0.5231,0.5304,0.5346,0.5355,0.5528,0.5593,0.5696,0.5805,0.5886,0.6084,0.5946,0.5766,0.5608,0.5821,0.5726,0.5724,0.5647,0.5641,0.5636,0.5631,0,0,0.4582,0.4625,0.4594,0.468,0.4758,0.4689,0.4857,0.4897,0.4957,0.5019,0.5,0.5163,0.5246,0.5471,0.5679,0.5619,0.5486,0.5661,0.5746,0.576,0.5772,0.5692,0.5696,0.5622,0.562,0.5618,0.5616,0,0.4528,0.4477,0.456,0.4588,0.4626,0.4632,0.4666,0.4717,0.4782,0.4892,0.4886,0.5008,0.5076,0.5198,0.526,0.552,0.5333,0.5549,0.5849,0.5703,0.5725,0.5742,0.5669,0.5677,0.5603,0.5604,0.5605,0,0.4426,0.439,0.4427,0.4426,0.4454,0.4558,0.4484,0.4559,0.4672,0.4546,0.4698,0.4702,0.4744,0.492,0.4987,0.4923,0.5155,0.5138,0.5166,0.5222,0.506,0.5089,0.5114,0.4774,0.4771,0.477,0,0,0.4375,0.4384,0.4407,0.4424,0.4462,0.4464,0.4483,0.4504,0.4534,0.4551,0.4555,0.4605,0.4693,0.4746,0.4774,0.4898,0.4773,0.5044,0.5083,0.5116,0.5189,0.504,0.5069,0.4762,0.4762,0.4761,0,0,0.4378,0.4392,0.4368,0.4402,0.4425,0.4438,0.4482,0.447,0.4502,0.4531,0.4492,0.4496,0.4635,0.4598,0.4499,0.4811,0.4642,0.4659,0.4868,0.4914,0.4953,0.5039,0.4435,0,0,0,0,0,0.4353,0.4385,0.4363,0.4368,0.4381,0.4427,0.4429,0.4451,0.4447,0.448,0.45,0.4458,0.4587,0.4495,0.4489,0.4687,0.4661,0.4679,0.4696,0.4989,0.5039,0.5082,0,0,0,0,0,0,0.4356,0.436,0.4363,0.4372,0.4377,0.4424,0.4406,0.441,0.4447,0.4453,0.4454,0.4455,0.4436,0.4494,0.4489,0.4682,0.4436,0.4668,0.4684,0.4697,0.5006,0.5048,0.5083,0,0,0,0,0,0.4357,0.4361,0.4381,0.4372,0.4375,0.4405,0.4407,0.4411,0.4441,0.4427,0.443,0.4468,0.4435,0.4434,0.4491,0.4689,0.4439,0.4437,0.4678,0.469,0.4701,0.5026,0,0,0,0,0,0,0.4359,0.4346,0.4382,0.4384,0.4392,0.4405,0.4409,0.4411,0.4413,0.4418,0.4435,0.4439,0.4433,0.4433,0.4432,0.4701,0.4441,0.4439,0.4439,0.4687,0.4697,0.4705,0,0,0,0,0,0,0.4345,0.4347,0.4382,0.4407,0.4411,0.4405,0.4409,0.4388,0.4412,0.4419,0.4424,0.4437,0.4445,0.4432,0.4431,0.4396,0.4443,0.4441,0.444,0.444,0.4695,0.4702,0,0,0,0,0,0,0.4346,0.4347,0.4406,0.4409,0.4412,0.4424,0.4386,0.44,0.4433,0.4418,0.4438,0.444,0.4444,0.4443,0.443,0.4395,0.4396,0.4442,0.4442,0.4441,0.444,0,0,0,0,0,0,0,0.4347,0.4335,0.4384,0.441,0.4414,0.4399,0.4399,0.4398,0.4433,0.4435,0.4437,0.4439,0.445,0.4449,0.4447,0.4395,0,0,0.4443,0.4442,0,0,0,0,0,0,0,0,0.4335,0.4335,0.4384,0.4385,0.4386,0.4399,0.4399,0.4398,0.4434,0.4435,0.4437,0.4439,0.445,0.4449,0.4447,0,0,0,0,0,0,0,0,0,0,0,0,0,0,0,0.4384,0.4385,0,0.4399,0.4399,0.4398,0.4434,0.4435,0.4437,0.4438,0.445,0.4449,0.4448,0,0,0,0,0,0,0,0,0,0,0,0,0,0,0,0,0,0,0,0,0,0,0,0,0,0,0,0,0,0,0,0,0,0,0,0,0,0,0,0,0,0,0,0,0,0,0,0,0,0,0,0,0,0,0,0,0,0,0,0,0,0,0,0,0,0,0,0,0]}],[{"header":{"parameterUnit":"kt","parameterCategory":2,"dx":1,"dy":1,"la1":30.253999710083008,"la2":30.299108505249023,"lo1":-89.0895004272461,"lo2":-89.04439544677734,"nx":28,"ny":28,"refTime":"2022-10-04T21:00:00:Z","depth":"2","parameterNumber":3,"parameterNumberName":"V-component_of_CURRENTS"},"data":[-0.0329,-0.0199,-0.0091,0.0146,0.0221,0.0445,0.0678,0.1111,0.1388,0.1867,0.2008,0.2064,0.1493,0.1024,0.05,0.0122,-0.0072,0.0044,0.0033,-0.0013,-0.0026,-0.0468,-0.0337,0,0,0,0,0,-0.0361,-0.0258,-0.0178,-0.0036,0.0085,0.0092,0.0378,0.0629,0.1118,0.136,0.1686,0.148,0.1331,0.0876,0.0216,-0.0175,-0.0283,-0.0325,-0.0403,-0.0421,-0.0439,-0.0348,-0.0251,-0.0252,-0.0253,-0.0254,0,0,-0.0381,-0.0337,-0.0231,-0.012,-0.0071,0.0114,0.0267,0.0468,0.0721,0.1016,0.1035,0.1286,0.0906,0.0639,0.0302,-0.0184,-0.0227,-0.0468,-0.048,-0.0494,-0.04,-0.022,-0.0319,-0.032,-0.032,-0.0321,-0.0322,0,-0.0363,-0.0292,-0.0247,-0.0161,-0.009,-0.001,0.008,0.0154,0.0242,0.0362,0.0615,0.0755,0.0555,0.0444,0.0126,-0.0045,-0.0542,-0.0498,-0.0635,-0.0602,-0.0421,-0.0462,-0.0453,-0.0583,-0.0585,-0.0587,-0.0588,-0.0589,-0.0281,-0.0272,-0.0181,-0.0143,-0.0086,-0.0045,0.0006,0.004,0.0084,0.0132,0.0155,0.0132,0.0293,0.0053,-0.0213,-0.0409,-0.0478,-0.0548,-0.0623,-0.0589,-0.0633,-0.0615,-0.0598,-0.0615,-0.0612,-0.0609,-0.0607,0,-0.0201,-0.0153,-0.0158,-0.0087,-0.0058,-0.005,0.0052,0.0025,0.0028,0.0035,0.0027,0.0004,-0.0036,-0.0194,-0.044,-0.0564,-0.0719,-0.0699,-0.0483,-0.0517,-0.0628,-0.0606,-0.0794,-0.079,-0.0787,-0.0784,-0.0782,0,-0.0063,-0.0089,0.0018,0.0003,-0.0003,0.0074,0.0055,0.0053,0.0035,0.0027,-0.0031,-0.0021,-0.0255,-0.0342,-0.0428,-0.0518,-0.0658,-0.0616,-0.0679,-0.0609,-0.0584,-0.0781,-0.0766,-0.09,-0.0898,-0.0897,-0.0897,0,0.0051,0.0069,0.0093,0.0099,0.0128,0.0162,0.0179,0.0156,0.0152,0.0048,0.0013,-0.0138,-0.0176,-0.0357,-0.0353,-0.0383,-0.0587,-0.0714,-0.0639,-0.0626,-0.0665,-0.0645,-0.0895,-0.0895,-0.0895,-0.0895,-0.0894,0,0.0171,0.0181,0.021,0.0189,0.0192,0.0213,0.0192,0.02,0.0104,0.0092,0.0037,-0.0036,-0.0094,-0.0067,-0.0273,-0.0201,-0.0274,-0.0361,-0.0374,-0.0292,-0.0327,-0.0372,-0.0404,-0.0472,-0.0469,-0.0466,-0.0463,0,0.0226,0.0226,0.0293,0.0271,0.0246,0.0289,0.0294,0.0279,0.0256,0.0155,0.0117,0.0035,0.0119,0.0094,0.0016,-0.0119,-0.0181,-0.0057,-0.0424,-0.0431,-0.0294,-0.0327,-0.0257,-0.0361,-0.0423,-0.0428,-0.0431,0,0.0245,0.0275,0.0266,0.025,0.0296,0.0282,0.0324,0.0294,0.0228,0.0227,0.0149,0.0161,0.0116,0.0087,0.0072,-0.0017,-0.0109,-0.0046,-0.0059,-0.0085,-0.044,-0.0287,-0.0299,-0.0254,-0.026,-0.0264,-0.0399,0,0.0273,0.0269,0.0269,0.0276,0.0303,0.0282,0.0288,0.0274,0.0273,0.023,0.0173,0.0133,0.0063,0.0077,0.0098,0.0006,0.0001,-0.0096,-0.0131,-0.0149,-0.0195,-0.0219,0.0039,0.0037,0.0035,0.0034,0,0,0.0257,0.0263,0.0268,0.0273,0.0278,0.0244,0.026,0.0235,0.0201,0.0176,0.0192,0.0085,0.0068,0.0002,0.005,0.0016,-0.0063,0.0057,-0.0112,-0.0127,-0.0142,-0.0189,-0.021,0.0031,0.0031,0.003,0.003,0,0.0255,0.0261,0.0273,0.0262,0.025,0.0232,0.0236,0.0208,0.0199,0.0184,0.0134,0.0098,0.0061,0.0015,-0.001,0.0,-0.0078,0.0008,0.0075,-0.0119,-0.0132,-0.0144,-0.0191,-0.0209,0.0026,0.0026,0.0026,0,0.0246,0.0247,0.025,0.0246,0.0227,0.0221,0.0195,0.018,0.0179,0.0117,0.0102,0.006,0.0002,-0.0016,-0.0028,-0.0035,-0.0105,-0.0041,-0.0035,-0.0032,-0.0235,-0.0248,-0.026,-0.0117,-0.0117,-0.0117,0,0,0.0244,0.0253,0.0238,0.0243,0.0238,0.0206,0.0192,0.0174,0.0138,0.0121,0.0087,0.0045,0.0005,-0.0006,-0.0053,-0.0061,-0.0149,-0.0053,-0.0047,-0.0041,-0.0034,-0.0233,-0.0245,-0.0117,-0.0117,-0.0117,0,0,0.0231,0.0227,0.0228,0.0235,0.0217,0.0173,0.0162,0.0147,0.0109,0.0105,0.0055,0.0042,0.0015,-0.0018,-0.0012,-0.0039,-0.0074,-0.0076,0.0005,0.0012,0.0019,0.0039,-0.0044,0,0,0,0,0,0.0223,0.0232,0.0234,0.0233,0.0207,0.0181,0.0173,0.0138,0.013,0.0124,0.0081,0.0061,-0.0029,-0.0025,-0.0036,-0.001,-0.0116,-0.0116,-0.0116,-0.0018,-0.0009,-0.0002,0,0,0,0,0,0,0.0222,0.0223,0.0233,0.0197,0.019,0.0181,0.0154,0.0144,0.013,0.0126,0.0069,0.0059,0.002,-0.0022,-0.0031,-0.0006,-0.0041,-0.0116,-0.0116,-0.0116,-0.0015,-0.0008,-0.0002,0,0,0,0,0,0.0221,0.0222,0.0198,0.0194,0.0189,0.0146,0.0154,0.0145,0.0131,0.0076,0.0066,0.0108,0.0022,0.0011,-0.0028,0.0,-0.0035,-0.0038,-0.0116,-0.0116,-0.0116,-0.0011,0,0,0,0,0,0,0.0221,0.0199,0.0195,0.019,0.0195,0.0144,0.0139,0.0147,0.008,0.0071,0.0112,0.011,0.0022,0.0014,0.0006,0.0005,-0.003,-0.0033,-0.0035,-0.0116,-0.0116,-0.0116,0,0,0,0,0,0,0.0199,0.0196,0.0192,0.0196,0.0191,0.0143,0.0139,0.0106,0.008,0.0119,0.0116,0.0112,0.0035,0.0016,0.0009,-0.0042,-0.0026,-0.0029,-0.0031,-0.0033,-0.0116,-0.0116,0,0,0,0,0,0,0.0196,0.0194,0.0196,0.0193,0.0188,0.013,0.0112,0.0086,0.0088,0.0122,0.0088,0.0087,0.0038,0.0031,0.0012,-0.0036,-0.004,-0.0026,-0.0028,-0.003,-0.0031,0,0,0,0,0,0,0,0.0194,0.023,0.0227,0.019,0.0186,0.0148,0.0146,0.0144,0.0088,0.0088,0.0088,0.0087,-0.0007,-0.0011,-0.0015,-0.0031,0,0,-0.0026,-0.0027,0,0,0,0,0,0,0,0,0.0229,0.023,0.0227,0.0226,0.0225,0.0148,0.0146,0.0145,0.0088,0.0088,0.0088,0.0088,-0.0008,-0.0011,-0.0014,0,0,0,0,0,0,0,0,0,0,0,0,0,0,0,0.0227,0.0226,0,0.0147,0.0146,0.0145,0.0088,0.0088,0.0088,0.0088,-0.0009,-0.0012,-0.0014,0,0,0,0,0,0,0,0,0,0,0,0,0,0,0,0,0,0,0,0,0,0,0,0,0,0,0,0,0,0,0,0,0,0,0,0,0,0,0,0,0,0,0,0,0,0,0,0,0,0,0,0,0,0,0,0,0,0,0,0,0,0,0,0,0,0,0,0,0]}]],[[{"header":{"parameterUnit":"kt","parameterCategory":2,"dx":1,"dy":1,"la1":30.253999710083008,"la2":30.299108505249023,"lo1":-89.0895004272461,"lo2":-89.04439544677734,"nx":28,"ny":28,"refTime":"2022-10-04T21:00:00:Z","depth":"4","parameterNumber":2,"parameterNumberName":"U-component_of_CURRENTS"},"data":[0.125,0.13,0.131,0.1266,0.1267,0.1349,0.1456,0.1611,0.1604,0.1828,0.1893,0.2087,0.2226,0.2346,0.2396,0.2436,0.238,0.278,0.2774,0.2776,0.279,0.2802,0.2789,0,0,0,0,0,0.1276,0.1303,0.1338,0.1386,0.1448,0.1522,0.1678,0.1773,0.1988,0.2001,0.2136,0.2238,0.2367,0.2463,0.245,0.2664,0.2744,0.2636,0.2624,0.2785,0.2799,0.2782,0,0,0,0,0,0,0.1326,0.1354,0.1456,0.1515,0.1605,0.1659,0.1735,0.1827,0.1957,0.2252,0.2265,0.2485,0.2665,0.2695,0.276,0.2793,0.2726,0.2613,0.2635,0.2651,0.2609,0.2591,0.2361,0,0,0,0,0,0.1394,0.1477,0.1538,0.1631,0.1707,0.1807,0.1916,0.1961,0.2219,0.2407,0.2504,0.2603,0.2719,0.277,0.2881,0.2888,0.2986,0.298,0.2985,0.2925,0.2937,0.2899,0.2909,0.2855,0.2857,0.2858,0.2859,0,0.1527,0.1537,0.1705,0.1751,0.1828,0.1915,0.2002,0.2207,0.2281,0.2563,0.2606,0.2819,0.2918,0.2893,0.303,0.3044,0.307,0.302,0.2956,0.2961,0.2918,0.2925,0.293,0.2871,0.287,0.2869,0.2868,0,0.1614,0.1742,0.1784,0.1932,0.1975,0.2002,0.2197,0.2248,0.2433,0.2574,0.2653,0.2846,0.2937,0.3061,0.3151,0.3076,0.3086,0.3097,0.3279,0.3237,0.2951,0.2951,0.289,0.2886,0.2882,0.2879,0.2877,0,0.1827,0.1836,0.2023,0.2026,0.2058,0.2184,0.2229,0.2316,0.2486,0.2592,0.2739,0.2819,0.2959,0.3051,0.3107,0.311,0.3151,0.3115,0.3064,0.3197,0.3196,0.3165,0.3162,0.3203,0.3203,0.3203,0.3204,0,0.1958,0.2085,0.2114,0.2149,0.2297,0.2299,0.2373,0.2484,0.2575,0.2691,0.2789,0.2834,0.2947,0.2974,0.3144,0.3133,0.3232,0.3161,0.3092,0.3083,0.3166,0.3161,0.3204,0.3204,0.3204,0.3204,0.3204,0,0.2157,0.2229,0.2276,0.2351,0.2369,0.241,0.2449,0.2536,0.265,0.2733,0.2809,0.2911,0.2999,0.3089,0.3135,0.3144,0.3196,0.3252,0.3248,0.3123,0.3045,0.3096,0.317,0.317,0.317,0.317,0.317,0,0.2241,0.2313,0.2401,0.2435,0.2455,0.2548,0.2614,0.2672,0.276,0.2821,0.2913,0.3006,0.3079,0.3138,0.317,0.3224,0.3246,0.3256,0.316,0.3157,0.303,0.307,0.3211,0.3171,0.3171,0.3171,0.317,0,0.2269,0.242,0.2426,0.2446,0.2579,0.258,0.2669,0.271,0.2735,0.2877,0.2903,0.3051,0.309,0.3111,0.3141,0.3183,0.324,0.321,0.3206,0.3171,0.3196,0.3083,0.3072,0.3209,0.3209,0.321,0.3171,0,0.2357,0.2415,0.2445,0.2531,0.2571,0.2609,0.2679,0.2734,0.2822,0.2865,0.2951,0.3023,0.3053,0.3109,0.3151,0.3185,0.3175,0.3136,0.3064,0.3127,0.3103,0.3104,0.3082,0.3081,0.308,0.3079,0,0,0.2357,0.2389,0.2456,0.2508,0.253,0.261,0.2632,0.2693,0.2768,0.2778,0.2854,0.2958,0.2996,0.3005,0.308,0.3076,0.3066,0.3073,0.3109,0.3113,0.3116,0.3096,0.3097,0.3077,0.3076,0.3076,0.3076,0,0.2347,0.2407,0.2444,0.2485,0.2556,0.2583,0.2614,0.2674,0.2718,0.2804,0.282,0.2886,0.2961,0.2957,0.2969,0.3056,0.3017,0.3089,0.3132,0.31,0.3105,0.311,0.3091,0.3093,0.3073,0.3073,0.3073,0,0.2341,0.2387,0.2402,0.2465,0.2501,0.254,0.2557,0.2618,0.2655,0.2664,0.2752,0.2797,0.2814,0.2872,0.2905,0.2868,0.2944,0.2939,0.2946,0.296,0.2924,0.2932,0.2938,0.2847,0.2846,0.2845,0,0,0.2349,0.2392,0.2425,0.2461,0.2488,0.253,0.2563,0.2594,0.2637,0.267,0.2705,0.2747,0.2787,0.2804,0.2839,0.2874,0.2846,0.2911,0.2922,0.2931,0.2949,0.2917,0.2925,0.2843,0.2842,0.2842,0,0,0.2337,0.2384,0.2403,0.2447,0.248,0.2505,0.255,0.2581,0.2644,0.2671,0.2677,0.2686,0.2769,0.2756,0.2719,0.2818,0.2775,0.2782,0.2814,0.2827,0.2837,0.2853,0.2682,0,0,0,0,0,0.234,0.2372,0.2388,0.2399,0.2457,0.2489,0.25,0.255,0.2587,0.2621,0.2665,0.265,0.2743,0.2709,0.2712,0.2756,0.2805,0.2812,0.2818,0.287,0.2884,0.2896,0,0,0,0,0,0,0.2344,0.2355,0.2388,0.2409,0.2423,0.2488,0.2501,0.2514,0.2585,0.2594,0.2642,0.2648,0.2639,0.2706,0.2709,0.2752,0.2681,0.2808,0.2813,0.2818,0.2875,0.2886,0.2896,0,0,0,0,0,0.2348,0.2356,0.2439,0.2409,0.2422,0.2487,0.2502,0.2514,0.2585,0.2584,0.2595,0.263,0.2637,0.2644,0.2708,0.2751,0.2678,0.268,0.2811,0.2816,0.282,0.288,0,0,0,0,0,0,0.235,0.2366,0.2443,0.2449,0.2422,0.2487,0.2499,0.2513,0.2573,0.2584,0.2564,0.257,0.2635,0.2641,0.2645,0.2753,0.2677,0.2678,0.2679,0.2815,0.2818,0.2821,0,0,0,0,0,0,0.2362,0.2371,0.2446,0.2458,0.2466,0.2486,0.2497,0.2505,0.2572,0.2549,0.2556,0.2566,0.2625,0.2639,0.2643,0.2653,0.2675,0.2676,0.2677,0.2678,0.2817,0.282,0,0,0,0,0,0,0.2367,0.2374,0.2457,0.2463,0.247,0.2536,0.2493,0.255,0.259,0.2545,0.2594,0.2596,0.2622,0.2627,0.264,0.2648,0.2651,0.2675,0.2676,0.2677,0.2677,0,0,0,0,0,0,0,0.237,0.231,0.241,0.2467,0.2473,0.25,0.2502,0.2503,0.259,0.2592,0.2593,0.2595,0.2668,0.2669,0.2671,0.2645,0,0,0.2675,0.2676,0,0,0,0,0,0,0,0,0.2308,0.2309,0.241,0.2411,0.2412,0.2501,0.2502,0.2503,0.259,0.2592,0.2593,0.2594,0.2668,0.2669,0.2671,0,0,0,0,0,0,0,0,0,0,0,0,0,0,0,0.241,0.2411,0,0.2501,0.2502,0.2503,0.2591,0.2592,0.2593,0.2594,0.2669,0.267,0.2671,0,0,0,0,0,0,0,0,0,0,0,0,0,0,0,0,0,0,0,0,0,0,0,0,0,0,0,0,0,0,0,0,0,0,0,0,0,0,0,0,0,0,0,0,0,0,0,0,0,0,0,0,0,0,0,0,0,0,0,0,0,0,0,0,0,0,0,0,0]}],[{"header":{"parameterUnit":"kt","parameterCategory":2,"dx":1,"dy":1,"la1":30.253999710083008,"la2":30.299108505249023,"lo1":-89.0895004272461,"lo2":-89.04439544677734,"nx":28,"ny":28,"refTime":"2022-10-04T21:00:00:Z","depth":"4","parameterNumber":3,"parameterNumberName":"V-component_of_CURRENTS"},"data":[0.0518,0.0592,0.0637,0.0819,0.0912,0.1062,0.1145,0.1187,0.1198,0.1232,0.1062,0.0998,0.067,0.0886,0.0352,0.0279,0.013,-0.0178,-0.0184,-0.0395,-0.0393,-0.0392,-0.0449,0,0,0,0,0,0.051,0.0538,0.0642,0.0752,0.089,0.0959,0.1093,0.1136,0.1213,0.124,0.1218,0.1074,0.0746,0.0595,0.036,0.0261,-0.0075,-0.0028,-0.0202,-0.0394,-0.0392,-0.0449,0,0,0,0,0,0,0.0459,0.0496,0.0548,0.0663,0.0784,0.0908,0.0977,0.106,0.1142,0.118,0.1187,0.1,0.0888,0.0532,0.0309,0.0071,-0.0008,-0.0107,-0.0121,-0.0122,-0.0124,-0.0098,0.005,0,0,0,0,0,0.0385,0.038,0.0444,0.0563,0.065,0.0768,0.0885,0.097,0.1021,0.1046,0.1054,0.0892,0.0748,0.0463,0.0216,-0.0017,-0.0245,-0.0304,-0.0305,-0.0411,-0.0417,-0.038,-0.0379,-0.0385,-0.0384,-0.0384,-0.0384,0,0.0239,0.0296,0.0368,0.0419,0.0453,0.0569,0.065,0.0698,0.0774,0.0831,0.0883,0.079,0.0679,0.0426,0.0147,-0.0145,-0.0238,-0.0297,-0.041,-0.0414,-0.0378,-0.0377,-0.0377,-0.0383,-0.0383,-0.0383,-0.0383,0,0.0138,0.0144,0.0245,0.0297,0.0328,0.0408,0.0514,0.0589,0.0599,0.0704,0.0712,0.0599,0.0471,0.0246,0.0059,-0.0113,-0.0266,-0.0336,-0.0307,-0.0265,-0.0374,-0.0374,-0.038,-0.0381,-0.0381,-0.0382,-0.0382,0,-0.0003,0.0068,0.0094,0.0161,0.0255,0.025,0.036,0.0356,0.0395,0.0474,0.0344,0.0375,0.0157,0.0068,-0.0119,-0.0273,-0.0229,-0.0441,-0.0405,-0.0399,-0.0398,-0.0362,-0.0357,-0.0412,-0.0413,-0.0414,-0.0414,0,-0.0045,-0.0041,0.0032,0.0047,0.0105,0.0127,0.0151,0.0154,0.0193,0.0193,0.0254,0.0127,0.0117,-0.0017,-0.0215,-0.0234,-0.0321,-0.0315,-0.0407,-0.0405,-0.0364,-0.0358,-0.0415,-0.0415,-0.0415,-0.0415,-0.0415,0,-0.0126,-0.0082,-0.0052,0.006,0.0067,0.0055,0.0129,0.0094,0.0082,0.009,0.0043,0.0016,-0.0121,-0.0197,-0.0335,-0.032,-0.0394,-0.0447,-0.0442,-0.0438,-0.037,-0.0288,-0.0348,-0.0348,-0.0348,-0.0348,-0.0348,0,-0.0069,-0.0055,-0.0068,-0.0043,0.0002,-0.0003,-0.0036,-0.005,-0.0049,-0.0022,-0.0125,-0.0127,-0.0275,-0.0262,-0.0365,-0.04,-0.0464,-0.048,-0.0349,-0.0346,-0.036,-0.0422,-0.0421,-0.0348,-0.0348,-0.0348,-0.0348,0,-0.0012,0.0024,0.0018,0.0068,0.0031,0.0052,-0.0025,-0.0038,-0.001,-0.0092,-0.0064,-0.0259,-0.0239,-0.0282,-0.0339,-0.0404,-0.046,-0.0388,-0.0385,-0.0356,-0.0394,-0.0416,-0.0417,-0.0417,-0.0417,-0.0418,-0.0348,0,0.0071,0.009,0.0079,0.0055,0.0051,0.0043,0.0011,0.0001,0.0,-0.0018,-0.0064,-0.0138,-0.0162,-0.0228,-0.0287,-0.0367,-0.0314,-0.0286,-0.0254,-0.0306,-0.0265,-0.0265,-0.0237,-0.0236,-0.0234,-0.0233,0,0,0.0143,0.0146,0.0165,0.0135,0.0139,0.0148,0.0121,0.0081,0.005,0.0052,0.0045,-0.0026,-0.0089,-0.0178,-0.0247,-0.0239,-0.0198,-0.0247,-0.0281,-0.0286,-0.0291,-0.0256,-0.0257,-0.0231,-0.023,-0.023,-0.0229,0,0.0162,0.0202,0.0179,0.0172,0.0162,0.0153,0.0153,0.0131,0.0108,0.007,0.0046,-0.0002,-0.0042,-0.0111,-0.0146,-0.0212,-0.0172,-0.0214,-0.0285,-0.0269,-0.0277,-0.0283,-0.025,-0.0252,-0.0226,-0.0226,-0.0227,0,0.0196,0.0204,0.0205,0.0206,0.0195,0.0162,0.018,0.0162,0.012,0.0132,0.0077,0.006,0.0019,-0.0048,-0.0071,-0.0056,-0.0132,-0.0126,-0.0132,-0.0146,-0.0126,-0.0135,-0.0143,-0.004,-0.004,-0.004,0,0,0.0201,0.0208,0.0203,0.0206,0.0203,0.0187,0.0178,0.0165,0.0143,0.0133,0.0113,0.0082,0.0033,0.0011,-0.0018,-0.0063,-0.0035,-0.0106,-0.0114,-0.0122,-0.0139,-0.0122,-0.0131,-0.0038,-0.0038,-0.0038,0,0,0.0192,0.0196,0.0205,0.021,0.0197,0.0169,0.0159,0.0156,0.0131,0.0129,0.0108,0.0101,0.0051,0.0051,0.0072,-0.0034,0.0007,0.0003,-0.0051,-0.0062,-0.007,-0.0089,0.0059,0,0,0,0,0,0.0195,0.0199,0.0208,0.0209,0.0198,0.0174,0.0169,0.0149,0.0154,0.0142,0.0121,0.0115,0.0044,0.0063,0.0057,-0.0002,-0.0021,-0.0024,-0.0027,-0.0105,-0.0116,-0.0126,0,0,0,0,0,0,0.0196,0.0198,0.0207,0.0186,0.0183,0.0174,0.0166,0.016,0.0153,0.015,0.0119,0.0114,0.0091,0.0065,0.006,0.0003,0.0061,-0.0022,-0.0025,-0.0027,-0.0109,-0.0118,-0.0126,0,0,0,0,0,0.0196,0.0197,0.0192,0.0185,0.0182,0.0158,0.0166,0.016,0.0152,0.0122,0.0117,0.0139,0.0092,0.0087,0.0062,0.0004,0.0064,0.0062,-0.0024,-0.0026,-0.0028,-0.0114,0,0,0,0,0,0,0.0196,0.0181,0.019,0.0187,0.0185,0.0157,0.0154,0.0161,0.0123,0.0118,0.0141,0.0139,0.0092,0.0088,0.0084,0.0003,0.0066,0.0065,0.0064,-0.0025,-0.0027,-0.0028,0,0,0,0,0,0,0.018,0.0179,0.0188,0.0191,0.0188,0.0156,0.0153,0.0137,0.0123,0.0143,0.0141,0.0141,0.0102,0.0089,0.0086,0.0061,0.0068,0.0067,0.0066,0.0065,-0.0027,-0.0028,0,0,0,0,0,0,0.0179,0.0178,0.0191,0.0189,0.0186,0.0153,0.014,0.0131,0.0125,0.0145,0.0125,0.0125,0.0104,0.01,0.0087,0.0064,0.0061,0.0068,0.0067,0.0066,0.0066,0,0,0,0,0,0,0,0.0178,0.0196,0.021,0.0187,0.0185,0.0164,0.0163,0.0162,0.0125,0.0125,0.0125,0.0125,0.0077,0.0076,0.0074,0.0066,0,0,0.0068,0.0068,0,0,0,0,0,0,0,0,0.0195,0.0195,0.0209,0.0209,0.0209,0.0164,0.0163,0.0162,0.0125,0.0125,0.0125,0.0125,0.0077,0.0075,0.0074,0,0,0,0,0,0,0,0,0,0,0,0,0,0,0,0.0209,0.0209,0,0.0164,0.0163,0.0162,0.0125,0.0125,0.0125,0.0125,0.0077,0.0075,0.0074,0,0,0,0,0,0,0,0,0,0,0,0,0,0,0,0,0,0,0,0,0,0,0,0,0,0,0,0,0,0,0,0,0,0,0,0,0,0,0,0,0,0,0,0,0,0,0,0,0,0,0,0,0,0,0,0,0,0,0,0,0,0,0,0,0,0,0,0,0]}]]]